Time,TemperatureF,DewpointF,PressureIn,WindDirection,WindDirectionDegrees,WindSpeedMPH,WindSpeedGustMPH,Humidity,HourlyPrecipIn,Conditions,Clouds,dailyrainin,SolarRadiationWatts/m^2,SoftwareType,DateUTC
2013-04-05 00:02:00,50.0,27.0,-100.00,WSW,255,3.0,6.0,41,0.00,,,0.00,0.000000,,2013-04-05 06:02:00,
2013-04-05 01:23:00,52.0,30.0,-100.00,ESE,113,3.0,19.0,43,-99.99,,,0.00,0.000000,,2013-04-05 07:23:00,
2013-04-05 01:32:00,52.0,30.0,-100.00,ESE,113,3.0,19.0,43,-99.99,,,0.00,0.000000,,2013-04-05 07:32:00,
2013-04-05 01:42:00,52.0,30.0,-100.00,ESE,113,3.0,19.0,43,-99.99,,,0.00,0.000000,,2013-04-05 07:42:00,
2013-04-05 01:52:00,52.0,30.0,-100.00,ESE,113,3.0,19.0,43,-99.99,,,0.00,0.000000,,2013-04-05 07:52:00,
2013-04-05 02:02:00,52.0,30.0,-100.00,ESE,113,3.0,19.0,43,-99.99,,,0.00,0.000000,,2013-04-05 08:02:00,
2013-04-05 02:23:00,47.0,32.0,-100.00,SSW,207,4.0,12.0,55,0.00,,,0.00,0.000000,,2013-04-05 08:23:00,
2013-04-05 02:33:00,47.0,32.0,-100.00,SSW,207,4.0,12.0,55,0.00,,,0.00,0.000000,,2013-04-05 08:33:00,
2013-04-05 02:43:00,47.0,32.0,-100.00,SSW,207,4.0,12.0,55,0.00,,,0.00,0.000000,,2013-04-05 08:43:00,
2013-04-05 02:52:00,47.0,32.0,-100.00,SSW,207,4.0,12.0,55,0.00,,,0.00,0.000000,,2013-04-05 08:52:00,
2013-04-05 03:02:00,47.0,32.0,-100.00,SSW,207,4.0,12.0,55,0.00,,,0.00,0.000000,,2013-04-05 09:02:00,
2013-04-05 04:23:00,45.0,31.0,-100.00,WSW,250,2.0,7.0,57,-99.99,,,0.00,0.000000,,2013-04-05 10:23:00,
2013-04-05 04:33:00,45.0,31.0,-100.00,WSW,250,2.0,7.0,57,-99.99,,,0.00,0.000000,,2013-04-05 10:33:00,
2013-04-05 04:43:00,45.0,31.0,-100.00,WSW,250,2.0,7.0,57,-99.99,,,0.00,0.000000,,2013-04-05 10:43:00,
2013-04-05 04:53:00,45.0,31.0,-100.00,WSW,250,2.0,7.0,57,-99.99,,,0.00,0.000000,,2013-04-05 10:53:00,
2013-04-05 05:02:00,45.0,31.0,-100.00,WSW,250,2.0,7.0,57,-99.99,,,0.00,0.000000,,2013-04-05 11:02:00,
2013-04-05 05:33:00,46.0,29.0,-100.00,East,101,0.0,9.0,51,0.00,,,0.00,0.000000,,2013-04-05 11:33:00,
2013-04-05 05:42:00,46.0,29.0,-100.00,East,101,0.0,9.0,51,0.00,,,0.00,0.000000,,2013-04-05 11:42:00,
2013-04-05 05:52:00,46.0,29.0,-100.00,East,101,0.0,9.0,51,0.00,,,0.00,0.000000,,2013-04-05 11:52:00,
2013-04-05 06:02:00,46.0,29.0,-100.00,East,101,0.0,9.0,51,0.00,,,0.00,0.000000,,2013-04-05 12:02:00,
2013-04-05 06:32:00,49.0,31.0,-100.00,NNE,22,3.0,5.0,50,0.00,,,0.00,0.000000,,2013-04-05 12:32:00,
2013-04-05 07:02:00,49.0,31.0,-100.00,NNE,22,3.0,5.0,50,0.00,,,0.00,0.000000,,2013-04-05 13:02:00,
2013-04-05 07:23:00,49.0,27.0,-100.00,West,264,15.0,15.0,43,0.00,,,0.00,0.000000,,2013-04-05 13:23:00,
2013-04-05 07:32:00,49.0,27.0,-100.00,West,264,15.0,15.0,43,0.00,,,0.00,0.000000,,2013-04-05 13:32:00,
2013-04-05 07:42:00,49.0,27.0,-100.00,West,264,15.0,15.0,43,0.00,,,0.00,0.000000,,2013-04-05 13:42:00,
2013-04-05 07:52:00,49.0,27.0,-100.00,West,264,15.0,15.0,43,0.00,,,0.00,0.000000,,2013-04-05 13:52:00,
2013-04-05 08:23:00,47.0,30.0,-100.00,SSE,155,2.0,26.0,51,0.00,,,0.00,11.000000,,2013-04-05 14:23:00,
2013-04-05 08:37:00,47.0,30.0,-100.00,SSE,155,2.0,26.0,51,0.00,,,0.00,11.000000,,2013-04-05 14:37:00,
2013-04-05 08:43:00,47.0,30.0,-100.00,SSE,155,2.0,26.0,51,0.00,,,0.00,11.000000,,2013-04-05 14:43:00,
2013-04-05 08:53:00,47.0,30.0,-100.00,SSE,155,2.0,26.0,51,0.00,,,0.00,11.000000,,2013-04-05 14:53:00,
2013-04-05 09:02:00,47.0,30.0,-100.00,SSE,155,2.0,26.0,51,0.00,,,0.00,11.000000,,2013-04-05 15:02:00,
2013-04-05 09:33:00,48.0,29.0,-100.00,SSW,203,6.0,27.0,47,0.00,,,0.00,94.000000,,2013-04-05 15:33:00,
2013-04-05 09:43:00,48.0,29.0,-100.00,SSW,203,6.0,27.0,47,0.00,,,0.00,94.000000,,2013-04-05 15:43:00,
2013-04-05 09:53:00,48.0,29.0,-100.00,SSW,203,6.0,27.0,47,0.00,,,0.00,94.000000,,2013-04-05 15:53:00,
2013-04-05 10:02:00,48.0,29.0,-100.00,SSW,203,6.0,27.0,47,0.00,,,0.00,94.000000,,2013-04-05 16:02:00,
2013-04-05 10:33:00,50.0,22.0,-100.00,WSW,257,11.0,11.0,33,0.00,,,0.00,302.000000,,2013-04-05 16:33:00,
2013-04-05 11:33:00,52.0,28.0,-100.00,SSW,204,6.0,21.0,39,0.00,,,0.00,334.000000,,2013-04-05 17:33:00,
2013-04-05 11:45:00,52.0,28.0,-100.00,SSW,204,6.0,21.0,39,0.00,,,0.00,334.000000,,2013-04-05 17:45:00,
2013-04-05 11:52:00,52.0,28.0,-100.00,SSW,204,6.0,21.0,39,0.00,,,0.00,334.000000,,2013-04-05 17:52:00,
2013-04-05 12:02:00,52.0,28.0,-100.00,SSW,204,6.0,21.0,39,0.00,,,0.00,334.000000,,2013-04-05 18:02:00,
2013-04-05 12:34:00,57.0,27.0,-100.00,ESE,114,9.0,17.0,31,0.00,,,0.00,558.000000,,2013-04-05 18:34:00,
2013-04-05 12:43:00,57.0,27.0,-100.00,ESE,114,9.0,17.0,31,0.00,,,0.00,558.000000,,2013-04-05 18:43:00,
2013-04-05 12:52:00,57.0,27.0,-100.00,ESE,114,9.0,17.0,31,0.00,,,0.00,558.000000,,2013-04-05 18:52:00,
2013-04-05 13:02:00,57.0,27.0,-100.00,ESE,114,9.0,17.0,31,0.00,,,0.00,558.000000,,2013-04-05 19:02:00,
2013-04-05 13:33:00,57.0,22.0,-100.00,WNW,296,9.0,16.0,26,0.00,,,0.00,642.000000,,2013-04-05 19:33:00,
2013-04-05 13:42:00,57.0,22.0,-100.00,WNW,296,9.0,16.0,26,0.00,,,0.00,642.000000,,2013-04-05 19:42:00,
2013-04-05 13:52:00,57.0,22.0,-100.00,WNW,296,9.0,16.0,26,0.00,,,0.00,642.000000,,2013-04-05 19:52:00,
2013-04-05 14:02:00,57.0,22.0,-100.00,WNW,296,9.0,16.0,26,0.00,,,0.00,642.000000,,2013-04-05 20:02:00,
2013-04-05 14:33:00,57.0,21.0,-100.00,WNW,298,8.0,19.0,24,0.00,,,0.00,541.000000,,2013-04-05 20:33:00,
2013-04-05 15:01:00,57.0,21.0,-100.00,WNW,298,8.0,19.0,24,0.00,,,0.00,541.000000,,2013-04-05 21:01:00,
2013-04-05 15:34:00,59.0,20.0,-100.00,WNW,285,13.0,20.0,22,0.00,,,0.00,521.000000,,2013-04-05 21:34:00,
2013-04-05 15:44:00,59.0,20.0,-100.00,WNW,285,13.0,20.0,22,0.00,,,0.00,521.000000,,2013-04-05 21:44:00,
2013-04-05 15:54:00,59.0,20.0,-100.00,WNW,285,13.0,20.0,22,0.00,,,0.00,521.000000,,2013-04-05 21:54:00,
2013-04-05 16:02:00,59.0,20.0,-100.00,WNW,285,13.0,20.0,22,0.00,,,0.00,521.000000,,2013-04-05 22:02:00,
2013-04-05 16:23:00,61.0,22.0,-100.00,WNW,288,11.0,23.0,22,0.00,,,-99.99,484.000000,,2013-04-05 22:23:00,
2013-04-05 16:33:00,61.0,22.0,-100.00,WNW,288,11.0,23.0,22,0.00,,,-99.99,484.000000,,2013-04-05 22:33:00,
2013-04-05 16:43:00,61.0,22.0,-100.00,WNW,288,11.0,23.0,22,0.00,,,-99.99,484.000000,,2013-04-05 22:43:00,
2013-04-05 16:52:00,61.0,22.0,-100.00,WNW,288,11.0,23.0,22,0.00,,,-99.99,484.000000,,2013-04-05 22:52:00,
2013-04-05 17:02:00,61.0,22.0,-100.00,WNW,288,11.0,23.0,22,0.00,,,-99.99,484.000000,,2013-04-05 23:02:00,
2013-04-05 17:33:00,57.0,17.0,-100.00,West,280,8.0,22.0,21,0.00,,,0.00,414.000000,,2013-04-05 23:33:00,
2013-04-05 17:42:00,57.0,17.0,-100.00,West,280,8.0,22.0,21,0.00,,,0.00,414.000000,,2013-04-05 23:42:00,
2013-04-05 17:52:00,57.0,17.0,-100.00,West,280,8.0,22.0,21,0.00,,,0.00,414.000000,,2013-04-05 23:52:00,
2013-04-05 18:02:00,57.0,17.0,-100.00,West,280,8.0,22.0,21,0.00,,,0.00,414.000000,,2013-04-06 00:02:00,
2013-04-05 18:33:00,57.0,15.0,-100.00,NW,313,10.0,17.0,19,0.00,,,0.00,234.000000,,2013-04-06 00:33:00,
2013-04-05 19:23:00,55.0,17.0,-100.00,WNW,295,11.0,18.0,22,0.00,,,0.00,157.000000,,2013-04-06 01:23:00,
2013-04-05 19:33:00,55.0,17.0,-100.00,WNW,295,11.0,18.0,22,0.00,,,0.00,157.000000,,2013-04-06 01:33:00,
2013-04-05 19:43:00,55.0,17.0,-100.00,WNW,295,11.0,18.0,22,0.00,,,0.00,157.000000,,2013-04-06 01:43:00,
2013-04-05 19:53:00,55.0,17.0,-100.00,WNW,295,11.0,18.0,22,0.00,,,0.00,157.000000,,2013-04-06 01:53:00,
2013-04-05 20:02:00,55.0,17.0,-100.00,WNW,295,11.0,18.0,22,0.00,,,0.00,157.000000,,2013-04-06 02:02:00,
2013-04-05 20:23:00,53.0,21.0,-100.00,WNW,287,14.0,20.0,28,0.00,,,0.00,40.000000,,2013-04-06 02:23:00,
2013-04-05 20:33:00,53.0,21.0,-100.00,WNW,287,14.0,20.0,28,0.00,,,0.00,40.000000,,2013-04-06 02:33:00,
2013-04-05 20:43:00,53.0,21.0,-100.00,WNW,287,14.0,20.0,28,0.00,,,0.00,40.000000,,2013-04-06 02:43:00,
2013-04-05 20:52:00,53.0,21.0,-100.00,WNW,287,14.0,20.0,28,0.00,,,0.00,40.000000,,2013-04-06 02:52:00,
2013-04-05 21:02:00,53.0,21.0,-100.00,WNW,287,14.0,20.0,28,0.00,,,0.00,40.000000,,2013-04-06 03:02:00,
2013-04-05 21:03:00,50.0,21.0,-100.00,West,281,7.0,25.0,31,0.00,,,0.00,0.000000,,2013-04-06 03:03:00,
2013-04-05 21:34:00,50.0,21.0,-100.00,West,281,7.0,25.0,31,0.00,,,0.00,0.000000,,2013-04-06 03:34:00,
2013-04-05 21:43:00,50.0,21.0,-100.00,West,281,7.0,25.0,31,0.00,,,0.00,0.000000,,2013-04-06 03:43:00,
2013-04-05 21:53:00,50.0,21.0,-100.00,West,281,7.0,25.0,31,0.00,,,0.00,0.000000,,2013-04-06 03:53:00,
2013-04-05 22:33:00,45.0,20.0,-100.00,WSW,255,3.0,15.0,36,0.00,,,0.00,0.000000,,2013-04-06 04:33:00,
2013-04-05 22:43:00,45.0,20.0,-100.00,WSW,255,3.0,15.0,36,0.00,,,0.00,0.000000,,2013-04-06 04:43:00,
2013-04-05 22:52:00,45.0,20.0,-100.00,WSW,255,3.0,15.0,36,0.00,,,0.00,0.000000,,2013-04-06 04:52:00,
2013-04-05 23:02:00,45.0,20.0,-100.00,WSW,255,3.0,15.0,36,0.00,,,0.00,0.000000,,2013-04-06 05:02:00,
2013-04-05 23:33:00,44.0,19.0,-100.00,WSW,244,6.0,14.0,36,0.00,,,0.00,0.000000,,2013-04-06 05:33:00,
2013-04-05 23:43:00,44.0,19.0,-100.00,WSW,244,6.0,14.0,36,0.00,,,0.00,0.000000,,2013-04-06 05:43:00,
2013-04-05 23:52:00,44.0,19.0,-100.00,WSW,244,6.0,14.0,36,0.00,,,0.00,0.000000,,2013-04-06 05:52:00,